Погода в Маланге

Индонезия     7°58′54″S   112°38′44″E
темп.,
°C
ветер,
м/с
пор.,
м/с
влажн.,
%
обл.,
%
осадки,
мм/ч
давл.,
гПа
погр.,
м
2 марта, вт
вт201:00+19всв128380 0.2 101026
04:00+19в117724 0.0 100924
07:00+22вюв117114 0.0 101086
10:00+29зюз12487 0.0 10101030
13:00+25з127536 2.7 1008559
16:00+24з018198 2.2 1007312
19:00+20всв119378 5.9 101024
22:00+19в119051 1.7 101224
3 марта, ср
ср301:00+19вюв129051 1.7 101027
04:00+19юв12876 0.0 100932
07:00+22юв12818 0.0 1011108
10:00+29зюз224516 0.0 10111081
13:00+30зюз33438 0.2 10081609
16:00+25з138249 2.6 1007732
19:00+20юв119569 7.5 101029
22:00+20св1194100 4.6 101239
4 марта, чт
чт401:00+19всв229486 5.1 101147
04:00+19в128785 0.0 101025
07:00+21юв128092 0.0 101257
10:00+27юз2352100 0.0 1012943
13:00+28юз3450100 0.3 10091619
16:00+25ююз466794 1.6 1008953
19:00+20ююв238397 1.7 1011146
22:00+20ююв2485100 0.0 1012144
5 марта, пт
пт501:00+20ююв2380100 0.0 101193
04:00+20юв1276100 0.0 101085
07:00+21ю2576100 0.0 1012362
10:00+26юз235999 0.0 1012907
13:00+28юз335392 0.5 10091345
16:00+25юз346499 0.6 1008903
19:00+20вюв019199 0.7 101023
22:00+19всв118892 0.0 101124
6 марта, сб
сб601:00+19св128688 0.0 101038
04:00+19св118585 0.0 100923
07:00+22св117692 0.0 1011107
10:00+28сз225942 0.2 10111069
13:00+26сз127159 2.8 1008922
16:00+24ссз128783 5.1 1008451
19:00+21ссв119686 9.8 101145
22:00+20в0096100 1.9 101125